| time (UTC) | temp F | wind direction | speed MPH | gust MPH | rain 1hr in | rain 24hr in | rain mn in | humidity % | barometer mb |
| 20260904000003 | 58 | 302 | 1.0 | 6.0 | 0.00 | 0.08 | 0.00 | 97 | 1001.2 |
| 20260903231503 | 59 | 328 | 3.0 | 6.0 | 0.00 | 0.08 | 0.00 | 97 | 1001.1 |
| 20260903230005 | 59 | 350 | 1.0 | 5.0 | 0.00 | 0.08 | 0.00 | 97 | 1001.0 |
| 20260903223004 | 60 | 307 | 4.0 | 8.0 | 0.00 | 0.08 | 0.00 | 97 | 1001.0 |
| 20260903221504 | 60 | 155 | 0.0 | 0.0 | 0.01 | 0.08 | 0.00 | 97 | 1001.3 |
| 20260903220004 | 60 | 155 | 0.0 | 0.0 | 0.01 | 0.08 | 0.00 | 97 | 1001.3 |
| 20260903214503 | 60 | 155 | 0.0 | 0.0 | 0.03 | 0.08 | 0.08 | 97 | 1001.3 |
| 20260903213004 | 60 | 155 | 0.0 | 0.0 | 0.03 | 0.08 | 0.08 | 97 | 1001.4 |
| 20260903211504 | 60 | 155 | 0.0 | 0.0 | 0.02 | 0.07 | 0.07 | 97 | 1001.5 |
| 20260903210004 | 60 | 155 | 0.0 | 0.0 | 0.02 | 0.07 | 0.07 | 97 | 1001.5 |
| 20260903204503 | 61 | 155 | 0.0 | 0.0 | 0.00 | 0.05 | 0.05 | 97 | 1002.0 |
| 20260903203004 | 61 | 155 | 0.0 | 0.0 | 0.00 | 0.05 | 0.05 | 97 | 1002.0 |
| 20260903201504 | 61 | 155 | 0.0 | 3.0 | 0.00 | 0.05 | 0.05 | 97 | 1002.1 |
| 20260903200004 | 61 | 150 | 1.0 | 5.0 | 0.01 | 0.05 | 0.05 | 97 | 1002.2 |
| 20260903194503 | 61 | 146 | 0.0 | 3.0 | 0.01 | 0.05 | 0.05 | 96 | 1002.3 |
| 20260903193004 | 61 | 149 | 2.0 | 3.0 | 0.01 | 0.05 | 0.05 | 96 | 1002.5 |
| 20260903191504 | 61 | 161 | 2.0 | 3.0 | 0.01 | 0.05 | 0.05 | 96 | 1002.7 |
| 20260903190004 | 61 | 163 | 0.0 | 3.0 | 0.01 | 0.04 | 0.04 | 96 | 1002.9 |
| 20260903184505 | 61 | 151 | 2.0 | 5.0 | 0.01 | 0.04 | 0.04 | 96 | 1003.1 |
| 20260903183004 | 61 | 155 | 2.0 | 7.0 | 0.01 | 0.04 | 0.04 | 96 | 1003.5 |
| 20260903181503 | 61 | 162 | 2.0 | 5.0 | 0.01 | 0.04 | 0.04 | 96 | 1003.7 |
| 20260903180004 | 61 | 168 | 2.0 | 3.0 | 0.00 | 0.03 | 0.03 | 96 | 1003.8 |
| 20260903174504 | 61 | 165 | 1.0 | 3.0 | 0.00 | 0.03 | 0.03 | 95 | 1003.9 |
| 20260903171504 | 61 | 167 | 2.0 | 6.0 | 0.00 | 0.03 | 0.03 | 95 | 1004.2 |
| 20260903164504 | 61 | 185 | 2.0 | 6.0 | 0.00 | 0.03 | 0.03 | 95 | 1004.5 |
| 20260903163004 | 61 | 153 | 1.0 | 6.0 | 0.00 | 0.03 | 0.03 | 95 | 1004.6 |
| 20260903161503 | 61 | 135 | 2.0 | 3.0 | 0.01 | 0.03 | 0.03 | 95 | 1004.8 |
| 20260903160004 | 61 | 139 | 0.0 | 5.0 | 0.01 | 0.03 | 0.03 | 95 | 1005.3 |
| 20260903154504 | 61 | 152 | 1.0 | 3.0 | 0.01 | 0.03 | 0.03 | 95 | 1005.3 |
| 20260903153005 | 61 | 145 | 2.0 | 6.0 | 0.01 | 0.03 | 0.03 | 94 | 1005.8 |
| 20260903151504 | 61 | 172 | 3.0 | 7.0 | 0.00 | 0.02 | 0.02 | 94 | 1006.0 |
| 20260903144503 | 62 | 191 | 5.0 | 10.0 | 0.01 | 0.02 | 0.02 | 91 | 1006.3 |
| 20260903141504 | 64 | 174 | 3.0 | 6.0 | 0.01 | 0.02 | 0.02 | 88 | 1006.7 |
| 20260903140003 | 64 | 196 | 1.0 | 5.0 | 0.00 | 0.01 | 0.01 | 87 | 1006.7 |
| 20260903134504 | 64 | 209 | 2.0 | 7.0 | 0.00 | 0.01 | 0.01 | 85 | 1006.7 |
| 20260903133004 | 64 | 211 | 3.0 | 12.0 | 0.00 | 0.01 | 0.01 | 82 | 1006.9 |
| 20260903124503 | 65 | 206 | 7.0 | 16.0 | 0.00 | 0.01 | 0.01 | 80 | 1007.4 |
| 20260903123005 | 65 | 228 | 9.0 | 12.0 | 0.00 | 0.01 | 0.01 | 79 | 1007.4 |
| 20260903121504 | 64 | 206 | 5.0 | 13.0 | 0.00 | 0.01 | 0.01 | 82 | 1007.6 |
| 20260903120004 | 64 | 190 | 3.0 | 10.0 | 0.00 | 0.01 | 0.01 | 82 | 1007.9 |
| 20260903114503 | 63 | 211 | 6.0 | 14.0 | 0.00 | 0.01 | 0.01 | 82 | 1007.9 |
| 20260903113003 | 64 | 237 | 10.0 | 14.0 | 0.00 | 0.01 | 0.01 | 81 | 1008.1 |
| 20260903111503 | 63 | 215 | 6.0 | 13.0 | 0.00 | 0.01 | 0.01 | 83 | 1008.2 |
| 20260903110004 | 63 | 213 | 7.0 | 17.0 | 0.00 | 0.01 | 0.01 | 81 | 1008.4 |
| 20260903103004 | 62 | 203 | 7.0 | 13.0 | 0.00 | 0.01 | 0.01 | 85 | 1008.6 |
| 20260903101504 | 62 | 215 | 9.0 | 17.0 | 0.00 | 0.01 | 0.01 | 82 | 1008.9 |
| 20260903100004 | 63 | 237 | 10.0 | 15.0 | 0.00 | 0.01 | 0.01 | 77 | 1008.9 |
| 20260903094503 | 63 | 211 | 9.0 | 17.0 | 0.00 | 0.01 | 0.01 | 77 | 1008.9 |
| 20260903093004 | 65 | 212 | 9.0 | 16.0 | 0.00 | 0.01 | 0.01 | 74 | 1009.0 |
| 20260903091503 | 65 | 234 | 10.0 | 15.0 | 0.00 | 0.01 | 0.01 | 72 | 1009.0 |
| 20260903090004 | 63 | 211 | 8.0 | 15.0 | 0.00 | 0.01 | 0.01 | 74 | 1009.0 |
| 20260903084506 | 63 | 229 | 6.0 | 20.0 | 0.00 | 0.01 | 0.01 | 75 | 1009.3 |
| 20260903083004 | 64 | 241 | 10.0 | 16.0 | 0.00 | 0.01 | 0.01 | 74 | 1009.3 |
| 20260903081503 | 61 | 266 | 7.0 | 14.0 | 0.00 | 0.01 | 0.01 | 82 | 1009.5 |
| 20260903080004 | 61 | 183 | 4.0 | 12.0 | 0.01 | 0.01 | 0.01 | 83 | 1009.6 |
| 20260903074503 | 59 | 218 | 5.0 | 14.0 | 0.01 | 0.01 | 0.01 | 82 | 1009.7 |
| 20260903073004 | 60 | 234 | 5.0 | 12.0 | 0.01 | 0.01 | 0.01 | 82 | 1009.7 |
| 20260903064504 | 57 | 236 | 6.0 | 12.0 | 0.00 | 0.00 | 0.00 | 89 | 1010.0 |
| 20260903063004 | 56 | 230 | 3.0 | 12.0 | 0.00 | 0.00 | 0.00 | 92 | 1010.0 |
| 20260903054504 | 53 | 235 | 3.0 | 9.0 | 0.00 | 0.00 | 0.00 | 95 | 1010.3 |
| 20260903053004 | 52 | 230 | 5.0 | 8.0 | 0.00 | 0.00 | 0.00 | 96 | 1010.2 |
| 20260903044504 | 50 | 217 | 5.0 | 7.0 | 0.00 | 0.00 | 0.00 | 96 | 1010.2 |
| 20260903043004 | 49 | 211 | 5.0 | 7.0 | 0.00 | 0.00 | 0.00 | 97 | 1010.2 |
| 20260903041504 | 49 | 215 | 6.0 | 7.0 | 0.00 | 0.00 | 0.00 | 96 | 1010.2 |
| 20260903034503 | 50 | 217 | 4.0 | 9.0 | 0.00 | 0.00 | 0.00 | 96 | 1010.2 |
| 20260903031503 | 50 | 208 | 5.0 | 7.0 | 0.00 | 0.00 | 0.00 | 96 | 1010.4 |
| 20260903030004 | 50 | 207 | 5.0 | 7.0 | 0.00 | 0.00 | 0.00 | 96 | 1010.4 |
| 20260903023003 | 52 | 224 | 3.0 | 6.0 | 0.00 | 0.00 | 0.00 | 96 | 1010.6 |
| 20260903021503 | 52 | 230 | 5.0 | 7.0 | 0.00 | 0.00 | 0.00 | 96 | 1010.6 |
| 20260903020004 | 53 | 231 | 5.0 | 8.0 | 0.00 | 0.00 | 0.00 | 96 | 1010.6 |
| 20260903014503 | 53 | 231 | 5.0 | 9.0 | 0.00 | 0.00 | 0.00 | 96 | 1010.6 |
| 20260903013004 | 53 | 236 | 6.0 | 12.0 | 0.00 | 0.00 | 0.00 | 96 | 1010.6 |
| 20260903011503 | 53 | 228 | 6.0 | 10.0 | 0.00 | 0.00 | 0.00 | 96 | 1010.6 |
| 20260903010003 | 53 | 224 | 5.0 | 9.0 | 0.00 | 0.00 | 0.00 | 97 | 1010.7 |
| 20260903004503 | 53 | 218 | 5.0 | 8.0 | 0.00 | 0.00 | 0.00 | 96 | 1010.6 |
| 20260903003004 | 53 | 217 | 5.0 | 8.0 | 0.00 | 0.00 | 0.00 | 96 | 1010.6 |